[[{"header":{"parameterUnit":"m.s-1","parameterCategory":1,"la1":30.2991,"la2":30.254,"lo1":-89.0895,"lo2":-89.0444,"dy":0.0017,"dx":0.0017,"nx":28,"ny":28,"refTime":"2025-08-03T21:00:00:Z","depth":0,"parameterNumber":2,"parameterNumberName":"U-component_of_WINDS"},"data":[0,0,0,0,0,0,0,0,0,0,0,0,0,0,0,0,0,0,0,0,0,0,0,0,0,0,0,0,0,0,0,0,0,0,0,0,0,0,0,0,0,0,0,0,0,0,0,0,0,0,0,0,0,0,0,0,0,0,0.5514,0.5515,0,0.5555,0.5556,0.5556,0.5592,0.5593,0.5593,0.5594,0.5638,0.5639,0.564,0,0,0,0,0,0,0,0,0,0,0,0,0,0.5469,0.547,0.5514,0.5515,0.5515,0.5555,0.5556,0.5556,0.5592,0.5593,0.5593,0.5594,0.5638,0.5639,0.564,0,0,0,0,0,0,0,0,0,0,0,0,0,0.5498,0.547,0.5514,0.5538,0.554,0.5555,0.5556,0.5557,0.5592,0.5593,0.5593,0.5594,0.5638,0.5639,0.564,0.5635,0,0,0.5644,0.5644,0,0,0,0,0,0,0,0,0.5496,0.5499,0.5534,0.5536,0.5539,0.5569,0.5556,0.5583,0.5592,0.5573,0.5594,0.5594,0.5615,0.5618,0.5624,0.5637,0.5639,0.5644,0.5644,0.5645,0.5645,0,0,0,0,0,0,0,0.5494,0.5498,0.5531,0.5534,0.5538,0.5547,0.5552,0.5562,0.559,0.5574,0.5577,0.5581,0.5616,0.5623,0.5626,0.564,0.5644,0.5645,0.5645,0.5646,0.5651,0.5651,0,0,0,0,0,0,0.5488,0.5496,0.5529,0.5532,0.5518,0.5548,0.5553,0.5559,0.559,0.5595,0.5581,0.5583,0.5621,0.5624,0.5627,0.5624,0.5645,0.5646,0.5647,0.5652,0.5651,0.5651,0,0,0,0,0,0,0.5487,0.5491,0.5528,0.5515,0.552,0.5548,0.5554,0.556,0.5566,0.5595,0.56,0.5582,0.5621,0.5626,0.5633,0.5626,0.5647,0.5648,0.5653,0.5652,0.5651,0.5617,0,0,0,0,0,0,0.5485,0.549,0.5488,0.5514,0.552,0.5531,0.5554,0.556,0.5568,0.5571,0.5597,0.5603,0.5622,0.5631,0.5634,0.5628,0.5649,0.5653,0.5652,0.5651,0.5619,0.5615,0.5611,0,0,0,0,0,0.5484,0.5477,0.5487,0.5491,0.5518,0.5531,0.5535,0.5557,0.5567,0.5566,0.5584,0.5602,0.5626,0.5631,0.5635,0.5629,0.5654,0.5653,0.5651,0.562,0.5615,0.5612,0,0,0,0,0,0,0.545,0.5481,0.5493,0.5494,0.5509,0.5537,0.5535,0.5551,0.5564,0.5567,0.5595,0.56,0.5604,0.5618,0.5623,0.5627,0.5643,0.5642,0.5618,0.5613,0.561,0.5606,0.565,0,0,0,0,0,0.5442,0.5449,0.5476,0.5475,0.5482,0.5507,0.5514,0.5529,0.5547,0.5554,0.5573,0.5589,0.5601,0.5608,0.562,0.5621,0.5627,0.5619,0.5616,0.5612,0.5611,0.5613,0.561,0.5646,0.5646,0.5646,0,0,0.5427,0.5445,0.5448,0.5469,0.5482,0.549,0.5513,0.5519,0.5525,0.5555,0.5562,0.5577,0.5598,0.5602,0.5604,0.5613,0.5603,0.5611,0.5608,0.5609,0.5611,0.5608,0.5605,0.5645,0.5646,0.5646,0,0,0.5403,0.5417,0.5417,0.5431,0.5451,0.5468,0.5468,0.5493,0.5504,0.5512,0.5534,0.5542,0.5562,0.5575,0.5585,0.5567,0.5584,0.557,0.5552,0.5553,0.555,0.5547,0.5541,0.5538,0.5569,0.5569,0.5569,0,0.5382,0.5393,0.5416,0.5421,0.543,0.5457,0.5458,0.547,0.5493,0.5499,0.5509,0.5533,0.5549,0.5557,0.5552,0.5559,0.5561,0.5567,0.5548,0.5546,0.5544,0.5538,0.5536,0.5567,0.5568,0.5568,0.5568,0,0.5366,0.5373,0.5371,0.5392,0.5401,0.5404,0.5429,0.5435,0.545,0.5466,0.5474,0.5494,0.5511,0.5514,0.553,0.5524,0.5529,0.5543,0.5559,0.5538,0.5533,0.5531,0.5565,0.5565,0.5566,0.5566,0,0,0.532,0.5355,0.5353,0.5363,0.5388,0.5395,0.54,0.5415,0.542,0.5436,0.5441,0.5457,0.547,0.5481,0.5498,0.5499,0.5483,0.5513,0.5514,0.5506,0.5479,0.5467,0.5464,0.5495,0.5494,0.5494,0.5477,0,0.53,0.5309,0.5331,0.5333,0.534,0.5367,0.5371,0.5387,0.5402,0.5412,0.5429,0.544,0.5457,0.5463,0.5466,0.5484,0.5478,0.5486,0.55,0.55,0.5493,0.5462,0.545,0.5432,0.5475,0.5475,0.5474,0,0.5277,0.5291,0.5294,0.5318,0.5322,0.5325,0.5341,0.535,0.5369,0.538,0.5392,0.5411,0.5419,0.5434,0.5445,0.545,0.5457,0.5468,0.5467,0.5469,0.5485,0.5462,0.5427,0.5424,0.5471,0.5472,0.5472,0,0.5244,0.5263,0.5267,0.5275,0.5303,0.5305,0.5317,0.5337,0.5345,0.536,0.5365,0.5381,0.539,0.5402,0.5425,0.5434,0.5433,0.545,0.5443,0.5442,0.5441,0.5441,0.5406,0.5447,0.5447,0.5447,0.5447,0,0.5219,0.5219,0.5252,0.5254,0.5256,0.5282,0.5283,0.5298,0.5315,0.5322,0.5346,0.5352,0.5382,0.5392,0.541,0.5416,0.542,0.543,0.5435,0.5427,0.5426,0.5432,0.5434,0.5446,0.5446,0.5446,0.5446,0,0.5181,0.5203,0.5209,0.5236,0.5243,0.5243,0.5266,0.527,0.5287,0.5295,0.5298,0.5326,0.5338,0.5362,0.5382,0.5395,0.5397,0.5405,0.539,0.5393,0.5384,0.5384,0.5352,0.5349,0.5391,0.539,0.539,0,0.5163,0.5164,0.5191,0.5196,0.5207,0.5216,0.5225,0.525,0.5258,0.528,0.5281,0.5296,0.5308,0.5327,0.535,0.5365,0.5374,0.5361,0.5376,0.5369,0.5373,0.5373,0.5373,0.5358,0.5357,0.5357,0.5356,0,0.5129,0.514,0.515,0.5165,0.5174,0.5187,0.5201,0.5204,0.5233,0.5241,0.5254,0.5263,0.5283,0.5297,0.5316,0.533,0.5348,0.5352,0.5351,0.5343,0.5334,0.5338,0.538,0.5352,0.5353,0.5353,0.5353,0.5353,0.5101,0.5103,0.5122,0.5133,0.5146,0.5159,0.5164,0.5181,0.5192,0.5209,0.5224,0.5236,0.5256,0.5282,0.5295,0.5305,0.5314,0.5312,0.5312,0.5311,0.5308,0.5332,0.5309,0.5309,0.5309,0.5309,0.5309,0,0.5068,0.5081,0.5091,0.511,0.5119,0.5134,0.5151,0.5158,0.5167,0.5184,0.5196,0.521,0.5224,0.5247,0.5263,0.5267,0.5276,0.527,0.527,0.5273,0.5299,0.5298,0.5263,0.5263,0.5263,0.5263,0.5263,0.5263,0.5051,0.5056,0.5069,0.508,0.5094,0.5105,0.5113,0.5125,0.5139,0.5154,0.5165,0.518,0.5199,0.5217,0.5231,0.5237,0.5242,0.5234,0.5243,0.5267,0.5271,0.5275,0.5274,0.5235,0.5235,0.5216,0.5216,0.5215]},{"header":{"parameterUnit":"m.s-1","parameterCategory":1,"la1":30.2991,"la2":30.254,"lo1":-89.0895,"lo2":-89.0444,"dy":0.0017,"dx":0.0017,"nx":28,"ny":28,"refTime":"2025-08-03T21:00:00:Z","depth":0,"parameterNumber":3,"parameterNumberName":"V-component_of_WINDS"},"data":[0,0,0,0,0,0,0,0,0,0,0,0,0,0,0,0,0,0,0,0,0,0,0,0,0,0,0,0,0,0,0,0,0,0,0,0,0,0,0,0,0,0,0,0,0,0,0,0,0,0,0,0,0,0,0,0,0,0,-1.0657,-1.0657,0,-1.0647,-1.0647,-1.0647,-1.0661,-1.0662,-1.0663,-1.0663,-1.065,-1.065,-1.0649,0,0,0,0,0,0,0,0,0,0,0,0,0,-1.069,-1.069,-1.0657,-1.0657,-1.0657,-1.0647,-1.0647,-1.0647,-1.0661,-1.0662,-1.0663,-1.0663,-1.0651,-1.065,-1.0649,0,0,0,0,0,0,0,0,0,0,0,0,0,-1.0678,-1.069,-1.0657,-1.0663,-1.0664,-1.0647,-1.0647,-1.0647,-1.0661,-1.0662,-1.0663,-1.0664,-1.0651,-1.065,-1.0649,-1.0625,0,0,-1.0645,-1.0644,0,0,0,0,0,0,0,0,-1.0678,-1.0676,-1.0662,-1.0663,-1.0663,-1.0656,-1.0654,-1.064,-1.0661,-1.0662,-1.0663,-1.0664,-1.0652,-1.065,-1.0647,-1.0625,-1.0624,-1.0645,-1.0644,-1.0643,-1.0643,0,0,0,0,0,0,0,-1.0679,-1.0677,-1.0653,-1.0662,-1.0663,-1.0667,-1.0666,-1.0651,-1.0652,-1.0662,-1.0663,-1.0662,-1.0652,-1.0648,-1.0646,-1.0624,-1.0645,-1.0644,-1.0643,-1.0642,-1.0587,-1.0587,0,0,0,0,0,0,-1.068,-1.0678,-1.0654,-1.0653,-1.0673,-1.0666,-1.0664,-1.0658,-1.0653,-1.0653,-1.0661,-1.0663,-1.065,-1.0648,-1.0646,-1.0622,-1.0643,-1.0642,-1.0641,-1.0588,-1.0587,-1.0586,0,0,0,0,0,0,-1.068,-1.0677,-1.0654,-1.0666,-1.0663,-1.0664,-1.0657,-1.0657,-1.0653,-1.0652,-1.0652,-1.0657,-1.065,-1.0648,-1.0632,-1.0621,-1.0642,-1.0641,-1.0589,-1.0588,-1.0587,-1.0571,0,0,0,0,0,0,-1.0681,-1.0677,-1.0668,-1.0665,-1.0662,-1.0639,-1.0656,-1.0656,-1.0651,-1.0653,-1.0648,-1.0648,-1.0651,-1.0633,-1.063,-1.062,-1.064,-1.059,-1.0588,-1.0587,-1.0572,-1.0569,-1.0567,0,0,0,0,0,-1.0682,-1.0662,-1.0667,-1.0664,-1.0651,-1.0638,-1.0637,-1.0641,-1.065,-1.0642,-1.0642,-1.0648,-1.0623,-1.0632,-1.0628,-1.0617,-1.0591,-1.0589,-1.0587,-1.0573,-1.057,-1.0567,0,0,0,0,0,0,-1.0661,-1.0662,-1.0667,-1.0646,-1.0643,-1.0641,-1.063,-1.0636,-1.0629,-1.0631,-1.0636,-1.0635,-1.0618,-1.0616,-1.0626,-1.0597,-1.0608,-1.0606,-1.0599,-1.0596,-1.0593,-1.0594,-1.0639,0,0,0,0,0,-1.0655,-1.0645,-1.0646,-1.0627,-1.0625,-1.0628,-1.0623,-1.0627,-1.0623,-1.0621,-1.0619,-1.0615,-1.0607,-1.0601,-1.0593,-1.0572,-1.0573,-1.0563,-1.0561,-1.0558,-1.0556,-1.0549,-1.0546,-1.0581,-1.0581,-1.0581,0,0,-1.064,-1.0639,-1.0632,-1.0623,-1.0621,-1.0612,-1.0626,-1.0615,-1.0608,-1.0619,-1.0605,-1.0604,-1.0599,-1.0582,-1.0574,-1.058,-1.0547,-1.0556,-1.0555,-1.0554,-1.0547,-1.0544,-1.0541,-1.058,-1.058,-1.058,0,0,-1.0609,-1.0607,-1.0593,-1.0591,-1.0588,-1.0591,-1.0588,-1.0586,-1.0587,-1.0573,-1.0582,-1.0575,-1.0559,-1.0557,-1.0554,-1.0527,-1.0534,-1.0524,-1.051,-1.0503,-1.05,-1.0498,-1.0491,-1.0488,-1.0522,-1.0522,-1.0522,0,-1.0591,-1.0578,-1.0584,-1.0574,-1.0571,-1.0582,-1.0569,-1.0567,-1.0561,-1.0559,-1.0566,-1.055,-1.0547,-1.0531,-1.0525,-1.0521,-1.0519,-1.0525,-1.05,-1.0498,-1.0495,-1.0489,-1.0486,-1.0521,-1.0521,-1.0522,-1.0522,0,-1.0557,-1.0548,-1.0537,-1.0534,-1.053,-1.0518,-1.0524,-1.0518,-1.0524,-1.0526,-1.0514,-1.0512,-1.0506,-1.0502,-1.0506,-1.0488,-1.0492,-1.0499,-1.0511,-1.0491,-1.0485,-1.0482,-1.052,-1.052,-1.0521,-1.0521,0,0,-1.0511,-1.0515,-1.0511,-1.0511,-1.0511,-1.0504,-1.0494,-1.049,-1.0487,-1.0483,-1.0476,-1.0465,-1.0473,-1.047,-1.0474,-1.0467,-1.045,-1.0476,-1.0476,-1.0473,-1.0434,-1.0429,-1.0426,-1.0455,-1.0454,-1.0454,-1.0435,0,-1.0482,-1.0466,-1.0474,-1.0456,-1.045,-1.0463,-1.0454,-1.0454,-1.0457,-1.0452,-1.0455,-1.0448,-1.0458,-1.0457,-1.0451,-1.0453,-1.0443,-1.0455,-1.0449,-1.0449,-1.0451,-1.0422,-1.0416,-1.0398,-1.0432,-1.0432,-1.0431,0,-1.0446,-1.0444,-1.0427,-1.0432,-1.043,-1.0422,-1.0421,-1.0415,-1.0416,-1.0419,-1.0418,-1.0425,-1.0417,-1.0429,-1.0419,-1.0427,-1.0425,-1.0427,-1.0426,-1.0426,-1.0439,-1.0423,-1.0392,-1.039,-1.0427,-1.0427,-1.0428,0,-1.0418,-1.041,-1.04,-1.04,-1.0404,-1.04,-1.0401,-1.0403,-1.0401,-1.04,-1.0399,-1.0396,-1.0395,-1.0393,-1.04,-1.0408,-1.039,-1.0402,-1.0393,-1.0393,-1.0389,-1.0389,-1.0359,-1.0386,-1.0386,-1.0386,-1.0386,0,-1.0386,-1.0375,-1.0388,-1.0382,-1.0372,-1.0381,-1.0371,-1.0374,-1.0376,-1.0372,-1.0382,-1.0377,-1.0386,-1.0383,-1.0388,-1.0381,-1.038,-1.0383,-1.0384,-1.0382,-1.0382,-1.0381,-1.0383,-1.0385,-1.0386,-1.0386,-1.0386,0,-1.0352,-1.0359,-1.035,-1.0357,-1.0358,-1.035,-1.0356,-1.0352,-1.0357,-1.0351,-1.035,-1.0358,-1.0355,-1.0362,-1.0359,-1.0363,-1.0353,-1.0356,-1.0354,-1.0355,-1.0347,-1.0348,-1.0315,-1.0313,-1.0341,-1.0341,-1.034,0,-1.0331,-1.0324,-1.0331,-1.033,-1.0332,-1.0328,-1.0328,-1.0338,-1.0336,-1.0339,-1.0335,-1.0333,-1.0333,-1.0328,-1.0333,-1.0332,-1.0336,-1.0325,-1.0336,-1.0336,-1.0338,-1.0339,-1.034,-1.0323,-1.0322,-1.0322,-1.0322,0,-1.0295,-1.0301,-1.0299,-1.0301,-1.03,-1.0301,-1.0302,-1.0301,-1.0312,-1.031,-1.0308,-1.0308,-1.0308,-1.0307,-1.0308,-1.031,-1.0318,-1.0319,-1.0317,-1.0315,-1.0315,-1.0317,-1.0349,-1.0319,-1.0319,-1.032,-1.032,-1.032,-1.0269,-1.0265,-1.027,-1.0269,-1.0272,-1.0275,-1.0272,-1.0278,-1.0277,-1.0278,-1.0284,-1.0282,-1.0286,-1.0289,-1.0291,-1.029,-1.0295,-1.0292,-1.0291,-1.0291,-1.029,-1.0315,-1.029,-1.029,-1.029,-1.029,-1.029,0,-1.0236,-1.0241,-1.024,-1.0244,-1.0244,-1.0253,-1.0256,-1.0256,-1.0254,-1.0258,-1.0258,-1.0258,-1.0258,-1.0265,-1.0266,-1.0264,-1.0268,-1.0264,-1.0265,-1.0266,-1.0285,-1.0287,-1.0261,-1.0261,-1.0261,-1.0261,-1.0261,-1.0261,-1.0219,-1.0213,-1.0219,-1.0216,-1.0221,-1.022,-1.0222,-1.0225,-1.0228,-1.0228,-1.0229,-1.0234,-1.0239,-1.0242,-1.0243,-1.0245,-1.0246,-1.0241,-1.0244,-1.0261,-1.0264,-1.0267,-1.0269,-1.024,-1.024,-1.0226,-1.0226,-1.0226]}]]